Location: Heisede
(52.2582°N, 9.8523°E)
Time: 00:19:15
(UTC+00:00)

Cosmos 1833 Rocket - Pass Details

Date: 13 January 2026
Orbit: 831 x 839 km, 71.0° (Epoch: 9 February)

Event Time Altitude Azimuth Distance (km) Brightness Sun altitude
Exits shadow 03:59:35 68° 79° (E) 902 2.9 -30.4°
Drops below altitude 10° 04:04:53 10° 140° (SE) 2,443 5.5 -29.6°
Sets 04:07:20 0° 143° (SE) 3,373 6.3 -29.3°
